Le nostre stazioni meteo in Italia

Pubblicità
Il mio iltempo24.it
Vieste, Italia (16266): Temperatura & dewpoint: 15.04.2019 09:00:00 - 21.04.2019 09:00:00 (CEST)Vieste, Italia (16266): velocità del vento: 15.04.2019 09:00:00 - 21.04.2019 09:00:00 (CEST)Vieste, Italia (16266): direzione del vento: 15.04.2019 09:00:00 - 21.04.2019 09:00:00 (CEST)Vieste, Italia (16266): reduced air pressure: 15.04.2019 09:00:00 - 21.04.2019 09:00:00 (CEST)
Data & Tempo tt [°C] td [°C] ff [km/h] ff [kn] dd ppp [hPa]
21.04.2019 09:00:00 - - - - - -
21.04.2019 08:00:00 15,7 12,4 9 5 E 1022,6
21.04.2019 07:00:00 12,7 7,5 4 2 SO 1022,6
21.04.2019 06:00:00 11,7 4,1 2 1 O 1022,1
21.04.2019 05:00:00 12,3 3,9 2 1 O 1022,2
21.04.2019 04:00:00 13,1 3,9 4 2 O 1022,5
21.04.2019 03:00:00 15,3 3,7 5 3 NNO 1022,6
21.04.2019 02:00:00 15,7 3,7 8 4 ONO 1022,9
21.04.2019 01:00:00 15,3 3,7 5 3 ONO 1023,2
21.04.2019 00:00:00 15,3 4,0 8 4 NNO 1023,3
20.04.2019 23:00:00 15,3 4,3 8 4 NNO 1023,6
20.04.2019 22:00:00 15,4 4,4 5 3 NO 1024,0
20.04.2019 21:00:00 16,1 5,9 5 3 NO 1024,0
20.04.2019 20:00:00 17,2 6,3 8 4 N 1023,5
20.04.2019 19:00:00 18,9 6,0 11 6 N 1023,5
20.04.2019 18:00:00 - - - - - -
20.04.2019 17:00:00 20,1 8,7 15 8 NNE 1023,9
20.04.2019 16:00:00 19,8 11,2 15 8 NNE 1024,4
20.04.2019 15:00:00 19,6 12,1 16 9 N 1024,7
20.04.2019 14:00:00 19,9 11,6 16 9 NE 1025,1
20.04.2019 13:00:00 19,1 13,0 21 11 N 1025,2
20.04.2019 12:00:00 18,5 12,4 18 10 NNE 1025,8
20.04.2019 11:00:00 18,2 13,0 16 9 N 1025,9
20.04.2019 10:00:00 18,1 11,6 11 6 NNO 1025,9
20.04.2019 09:00:00 16,3 10,8 16 9 N 1025,9
20.04.2019 08:00:00 15,3 8,9 11 6 NNO 1025,6
20.04.2019 07:00:00 13,9 6,9 11 6 NO 1025,3
20.04.2019 06:00:00 13,8 6,1 13 7 NNO 1025,0
20.04.2019 05:00:00 14,4 5,4 9 5 NNO 1025,2
20.04.2019 04:00:00 14,4 5,1 11 6 NNO 1025,4
20.04.2019 03:00:00 14,4 4,6 9 5 N 1025,9
20.04.2019 02:00:00 14,4 4,9 11 6 NNO 1026,4
20.04.2019 01:00:00 - - - - - -
20.04.2019 00:00:00 - - - - - -
19.04.2019 23:00:00 14,0 6,3 9 5 NNO 1027,1
19.04.2019 22:00:00 14,4 7,6 9 5 NNO 1027,2
19.04.2019 21:00:00 - - - - - -
19.04.2019 20:00:00 15,6 7,8 8 4 NO 1026,6
19.04.2019 19:00:00 - - - - - -
19.04.2019 18:00:00 - - - - - -
19.04.2019 17:00:00 17,0 13,3 15 8 NNE 1026,8
19.04.2019 16:00:00 17,5 12,6 15 8 NE 1027,0
19.04.2019 15:00:00 17,2 13,2 15 8 NE 1027,6
19.04.2019 14:00:00 17,5 13,9 15 8 NE 1027,8
19.04.2019 13:00:00 17,4 12,8 18 10 NNE 1027,9
19.04.2019 12:00:00 17,1 12,6 16 9 NNE 1028,1
19.04.2019 11:00:00 17,2 11,9 16 9 NNE 1028,0
19.04.2019 10:00:00 16,7 12,4 15 8 NNE 1027,7
19.04.2019 09:00:00 16,8 11,3 5 3 N 1027,1
19.04.2019 08:00:00 14,9 10,5 8 4 NNO 1026,6
19.04.2019 07:00:00 12,1 7,4 2 1 OSO 1026,2
19.04.2019 06:00:00 12,5 7,7 8 4 ONO 1025,8
19.04.2019 05:00:00 12,6 7,2 9 5 N 1025,8
19.04.2019 04:00:00 12,6 5,0 11 6 NO 1025,8
19.04.2019 03:00:00 13,0 5,1 5 3 NO 1025,6
19.04.2019 02:00:00 13,4 5,0 8 4 NNO 1025,5
19.04.2019 01:00:00 - - - - - -
19.04.2019 00:00:00 - - - - - -
18.04.2019 23:00:00 13,4 5,2 8 4 ONO 1025,2
18.04.2019 22:00:00 13,5 6,3 8 4 ONO 1025,2
18.04.2019 21:00:00 - - - - - -
18.04.2019 20:00:00 15,0 8,2 9 5 NO 1024,2
18.04.2019 19:00:00 - - - - - -
18.04.2019 18:00:00 - - - - - -
18.04.2019 17:00:00 17,7 8,5 16 9 N 1023,2
18.04.2019 16:00:00 17,7 8,5 15 8 NE 1023,3
18.04.2019 15:00:00 17,6 10,4 15 8 NNE 1023,4
18.04.2019 14:00:00 17,7 10,5 15 8 N 1023,4
18.04.2019 13:00:00 17,6 10,2 9 5 NNE 1023,0
18.04.2019 12:00:00 17,5 10,1 9 5 N 1023,1
18.04.2019 11:00:00 17,1 9,5 11 6 N 1022,9
18.04.2019 10:00:00 17,0 9,8 11 6 NNE 1022,6
18.04.2019 09:00:00 16,6 9,5 9 5 NNE 1022,1
18.04.2019 08:00:00 15,2 10,6 5 3 NO 1021,5
18.04.2019 07:00:00 13,1 9,1 9 5 NO 1021,0
18.04.2019 06:00:00 13,2 8,6 9 5 N 1020,4
18.04.2019 05:00:00 13,4 7,8 11 6 NNO 1020,2
18.04.2019 04:00:00 13,8 7,0 11 6 NNO 1020,2
18.04.2019 03:00:00 14,3 5,8 13 7 O 1019,9
18.04.2019 02:00:00 14,4 2,5 11 6 NO 1019,9
18.04.2019 01:00:00 - - - - - -
18.04.2019 00:00:00 - - - - - -
17.04.2019 23:00:00 14,0 3,4 13 7 NNO 1020,3
17.04.2019 22:00:00 - - - - - -
17.04.2019 21:00:00 - - - - - -
17.04.2019 20:00:00 15,2 3,6 8 4 NNO 1018,9
17.04.2019 19:00:00 - - - - - -
17.04.2019 18:00:00 - - - - - -
17.04.2019 17:00:00 18,8 3,7 15 8 N 1018,5
17.04.2019 16:00:00 19,0 5,0 15 8 NNO 1018,7
17.04.2019 15:00:00 18,3 5,4 18 10 N 1019,1
17.04.2019 14:00:00 17,5 8,6 18 10 N 1019,4
17.04.2019 13:00:00 17,4 10,0 22 12 NNE 1019,8
17.04.2019 12:00:00 17,2 10,3 16 9 N 1019,9
17.04.2019 11:00:00 16,7 8,1 15 8 N 1019,9
17.04.2019 10:00:00 15,9 9,5 16 9 N 1019,6
17.04.2019 09:00:00 15,4 7,6 16 9 N 1019,1
17.04.2019 08:00:00 13,9 6,9 4 2 N 1018,7
17.04.2019 07:00:00 11,7 4,6 5 3 O 1018,5
17.04.2019 06:00:00 11,0 5,3 5 3 NO 1018,3
17.04.2019 05:00:00 10,8 6,9 5 3 O 1018,6
17.04.2019 04:00:00 11,7 9,1 8 4 O 1018,9
17.04.2019 03:00:00 - - - - - -
17.04.2019 02:00:00 9,2 4,6 0 0 N 1019,5
17.04.2019 01:00:00 9,7 4,8 0 0 N 1019,4
17.04.2019 00:00:00 10,1 5,0 2 1 OSO 1019,4
16.04.2019 23:00:00 11,5 5,7 0 0 N 1019,5
16.04.2019 22:00:00 11,8 6,4 4 2 ONO 1019,6
16.04.2019 21:00:00 11,9 8,7 2 1 N 1019,5
16.04.2019 20:00:00 13,3 10,3 4 2 NNO 1019,1
16.04.2019 19:00:00 14,9 11,4 11 6 N 1018,7
16.04.2019 18:00:00 15,2 12,5 15 8 NNE 1018,7
16.04.2019 17:00:00 15,6 11,9 18 10 NE 1018,8
16.04.2019 16:00:00 15,8 11,9 21 11 NNE 1019,0
16.04.2019 15:00:00 16,1 12,6 24 13 NNE 1019,3
16.04.2019 14:00:00 16,6 12,5 18 10 NNE 1019,4
16.04.2019 13:00:00 16,6 12,3 22 12 N 1019,5
16.04.2019 12:00:00 16,3 12,4 24 13 NNE 1019,4
16.04.2019 11:00:00 15,8 12,1 28 15 NNE 1019,4
16.04.2019 10:00:00 16,3 11,2 11 6 NNE 1019,2
16.04.2019 09:00:00 15,3 10,4 11 6 N 1018,8
16.04.2019 08:00:00 13,6 10,4 13 7 O 1018,6
16.04.2019 07:00:00 12,4 9,6 11 6 N 1018,2
16.04.2019 06:00:00 12,2 9,2 11 6 NNO 1017,7
16.04.2019 05:00:00 12,3 9,1 13 7 N 1017,6
16.04.2019 04:00:00 12,6 9,8 11 6 NNO 1017,7
16.04.2019 03:00:00 12,8 9,6 13 7 ONO 1017,7
16.04.2019 02:00:00 13,1 9,9 15 8 O 1017,8
16.04.2019 01:00:00 13,3 9,3 15 8 N 1018,0
16.04.2019 00:00:00 13,7 9,3 15 8 NNO 1017,9
15.04.2019 23:00:00 13,3 9,5 13 7 OSO 1017,7
15.04.2019 22:00:00 13,3 10,1 15 8 NO 1017,5
15.04.2019 21:00:00 13,5 10,5 13 7 NO 1017,0
15.04.2019 20:00:00 14,0 10,6 16 9 NNO 1016,3
15.04.2019 19:00:00 15,3 10,9 13 7 NO 1015,8
15.04.2019 18:00:00 15,8 9,2 15 8 NNO 1015,1
15.04.2019 17:00:00 16,4 10,6 16 9 NNO 1014,8
15.04.2019 16:00:00 16,0 9,4 22 12 NNE 1014,7
15.04.2019 15:00:00 16,2 12,5 21 11 NNE 1014,9
15.04.2019 14:00:00 15,6 11,5 13 7 NNE 1014,8
15.04.2019 13:00:00 15,3 12,6 11 6 NNO 1014,4
15.04.2019 12:00:00 14,9 13,5 5 3 ENE 1014,0
15.04.2019 11:00:00 13,4 12,6 9 5 E 1013,8
15.04.2019 10:00:00 12,5 11,7 2 1 N 1013,3
15.04.2019 09:00:00 11,4 10,5 2 1 OSO 1012,8

tt = Temperatura
td = dewpoint
ff = velocità del vento
dd = direzione del vento
ppp = reduced air pressure

Stazioni seguenti

WeatherPro
AMSI
MeteoEarth